Overview Statistics Trail Chart Weather Telemetry Raw packets
 

This is the latest recevied weather packets stored in our database for station/object XE2RCS-1. If no packets are shown the sender has not sent any weather packets the latest 10 day(s).

<< 4 5 6 7 8 9 10 >>
Time Temp. Humidity Pressure Rain* Wind** Luminosity Snow
1788592160 17.78° C 76% 1014 hPa 0 mm - - -
1788591559 18.33° C 73% 1014 hPa 0 mm - - -
1788590959 18.33° C 73% 1014 hPa 0 mm - - -
1788590358 18.89° C 73% 1014 hPa 0 mm - - -
1788589758 18.89° C 78% 1015 hPa 0 mm - - -
1788589157 18.89° C 78% 1015 hPa 0 mm - - -
1788588556 18.89° C 78% 1015 hPa 0 mm - - -
1788587955 18.89° C 76% 1015 hPa 0 mm - - -
1788587355 18.89° C 76% 1015 hPa 0 mm - - -
1788586754 17.78° C 79% 1015 hPa 0 mm - - -
1788586154 18.89° C 79% 1015 hPa 0 mm - - -
1788585580 17.78° C 77% 1015 hPa 0 mm - - -
1788584952 18.89° C 77% 1015 hPa 0 mm - - -
1788584351 17.78° C 74% 1015 hPa 0 mm - - -
1788583751 18.89° C 74% 1015 hPa 0 mm - - -
1788583150 18.89° C 74% 1015 hPa 0 mm - - -
1788582550 17.22° C 73% 1016 hPa 0 mm - - -
1788581949 18.33° C 73% 1016 hPa 0 mm - - -
1788581349 19.44° C 73% 1016 hPa 0 mm - - -
1788580748 17.22° C 68% 1016 hPa 0 mm - - -
1788580148 18.33° C 68% 1016 hPa 0 mm - - -
1788579547 19.44° C 68% 1017 hPa 0 mm - - -
1788578946 20.56° C 68% 1018 hPa 0 mm - - -
1788578346 21.67° C 68% 1018 hPa 0 mm - - -
1788577745 16.11° C 83% 1017 hPa 0 mm - - -

* Rain latest hour (hover to see other rain measurements)
** Current wind speed in m/s (hover to see current wind gust speed)